一网星座-0605星 (ONEWEB-0605 )

导读 | 豆包AI

ONEWEB-0605是英国一网(OneWeb)公司的低轨宽带互联网卫星,于2022年12月8日发射入轨。作为OneWeb全球星座组网过程中的一颗卫星,它运行于近地轨道,旨在为全球范围提供高速低延时的宽带网络接入服务,尤其可为偏远地区、地面基础设施受损场景提供稳定通信连接,助力全球卫星互联网覆盖与星地一体化通信网络建设。

基本信息
目录编号:
54669
目录名称:
ONEWEB-0605
国际标识:
2022-166AD
轨道中心:
EARTH
卫星名称:
一网星座-0605星
卫星全名:
一网星座-0605星 (ONEWEB-0605 )
卫星状态:
在轨 (已飞行1239 天)
发射日期:
2022-12-08 UTC
国别 :
英国 (GB)
星等 :
--
轨道信息
数据来源 国际轨道数据
星历时间: 2026-04-30T04:14:50+0800
13小时前
查看轨道信息
半长轴: 7555.887km
偏心率: 0.0002038
轨道倾角: 87.922°
近地点辐角 118.962°
升交点赤经 253.611°
平近点角 241.172°
近地点: 1176.21km
远地点: 1179.29km
周期: 108.940分钟
每日圈数: 13.218271
详细信息
平衡模式:
三轴稳定
覆盖范围:
全球
运营商:
一网卫星公司
运营商所在国:
英国
制造商(研发单位):
一网卫星公司
制造商所在国:
英国
使用方式:
暂无
卫星简介
OneWeb卫星网络由648颗重约125公斤的微型卫星组成,运行在1200公里的轨道上。 每颗卫星都能够提供至少每秒8千兆位的吞吐量,以使用其高吞吐量的Ku频段有效载荷为家庭和移动平台提供互联网接入。该卫星仍在工作。
2D轨道图
3D轨道图
轨道高度分析图
轨道倾角分析图
轨道综合分析图
查看轨道综合分析图